Satellite-Ground Cal/Val Site Overpasses Predictions

Prediction of Satellite NPP Overpassing Cal/Val Site: Antarctic Dome C

Ground Cal/Val Site Location: Latitude: -75.10, Longitude: 123.35; Satellite-Ground Site NADIR distance within 100 km.

Table of predicted overpasses for the next 14.0 days since TLE Epoch: 7/29/2015
Interval Starting Time Ending Time Minimum Distance Time Minimum Distance (km)
1 07/29/2015 15:11:43 07/29/2015 15:11:53 07/29/2015 15:11:48 93.52
2 07/30/2015 14:52:43 07/30/2015 14:53:12 07/30/2015 14:52:58 17.96
3 08/01/2015 07:35:31 08/01/2015 07:36:00 08/01/2015 07:35:45 4.78
4 08/04/2015 14:58:55 08/04/2015 14:59:24 08/04/2015 14:59:10 18.63
5 08/05/2015 14:40:13 08/05/2015 14:40:26 08/05/2015 14:40:19 88.41
6 08/06/2015 07:41:44 08/06/2015 07:42:11 08/06/2015 07:41:58 39.61
7 08/07/2015 07:22:56 08/07/2015 07:23:17 08/07/2015 07:23:06 70.53
8 08/09/2015 15:05:09 08/09/2015 15:05:33 08/09/2015 15:05:21 55.64
9 08/10/2015 14:46:19 08/10/2015 14:46:43 08/10/2015 14:46:31 53.53


NCC Satellite Cal/Val Overpasses Prediction Service
